TimeCDT,TemperatureF,Dew PointF,Humidity,Sea Level PressureIn,VisibilityMPH,Wind Direction,Wind SpeedMPH,Gust SpeedMPH,PrecipitationIn,Events,Conditions,WindDirDegrees,DateUTC
12:54 AM,42.1,34.0,73,30.15,10.0,North,8.1,-,N/A,,Clear,360,2012-10-28 05:54:00
1:54 AM,41.0,34.0,76,30.15,10.0,North,11.5,-,N/A,,Clear,350,2012-10-28 06:54:00
2:54 AM,39.9,34.0,79,30.16,10.0,NNW,8.1,-,N/A,,Clear,340,2012-10-28 07:54:00
3:54 AM,39.9,34.0,79,30.14,10.0,North,9.2,-,N/A,,Clear,360,2012-10-28 08:54:00
4:54 AM,39.9,34.0,79,30.15,10.0,North,11.5,-,N/A,,Clear,360,2012-10-28 09:54:00
5:54 AM,39.0,33.1,79,30.15,10.0,North,9.2,-,N/A,,Clear,10,2012-10-28 10:54:00
6:54 AM,39.0,33.1,79,30.15,10.0,North,8.1,-,N/A,,Clear,350,2012-10-28 11:54:00
7:54 AM,39.9,34.0,79,30.17,10.0,North,10.4,-,N/A,,Clear,360,2012-10-28 12:54:00
8:54 AM,42.1,34.0,73,30.17,10.0,North,11.5,-,N/A,,Clear,360,2012-10-28 13:54:00
9:54 AM,46.0,34.0,63,30.17,10.0,North,13.8,-,N/A,,Clear,10,2012-10-28 14:54:00
10:54 AM,50.0,35.1,57,30.17,10.0,NNE,12.7,19.6,N/A,,Clear,20,2012-10-28 15:54:00
11:54 AM,51.8,35.6,54,30.16,10.0,NNE,15.0,20.7,N/A,,Partly Cloudy,20,2012-10-28 16:54:00
12:54 PM,53.1,34.0,48,30.14,10.0,North,16.1,24.2,N/A,,Clear,10,2012-10-28 17:54:00
1:54 PM,53.1,34.0,48,30.13,10.0,North,16.1,21.9,N/A,,Partly Cloudy,350,2012-10-28 18:54:00
2:54 PM,53.1,30.9,43,30.13,10.0,NNW,13.8,23.0,N/A,,Clear,330,2012-10-28 19:54:00
3:54 PM,53.1,30.9,43,30.13,10.0,North,10.4,23.0,N/A,,Partly Cloudy,350,2012-10-28 20:54:00
4:54 PM,52.0,30.0,43,30.14,10.0,North,11.5,23.0,N/A,,Clear,350,2012-10-28 21:54:00
5:54 PM,48.0,30.9,52,30.15,10.0,NNW,11.5,-,N/A,,Clear,340,2012-10-28 22:54:00
6:54 PM,45.0,30.0,56,30.17,10.0,NNW,10.4,20.7,N/A,,Clear,330,2012-10-28 23:54:00
7:54 PM,44.1,28.9,55,30.17,10.0,NNW,8.1,-,N/A,,Clear,330,2012-10-29 00:54:00
8:54 PM,42.1,30.0,62,30.17,10.0,NW,6.9,-,N/A,,Clear,310,2012-10-29 01:54:00
9:54 PM,42.1,30.0,62,30.17,10.0,NNW,8.1,-,N/A,,Clear,330,2012-10-29 02:54:00
10:54 PM,41.0,30.0,65,30.18,10.0,NNW,8.1,-,N/A,,Clear,340,2012-10-29 03:54:00
11:54 PM,39.0,30.0,70,30.18,10.0,NW,6.9,-,N/A,,Clear,320,2012-10-29 04:54:00